This is the latest recevied weather packets stored in our database for station/object lw9ero. If no packets are shown the sender has not sent any weather packets the latest 10 day(s).
| Time | Temp. | Humidity | Pressure | Rain* | Wind** | Luminosity | Snow |
|---|---|---|---|---|---|---|---|
| 1778224560 | 7.78° C | 87% | 1006.8 hPa | 0 mm | - | 7 W/m² | - |
| 1778223954 | 8.33° C | 84% | 1007.2 hPa | 0 mm | - | 7 W/m² | - |
| 1778223348 | 8.89° C | 77% | 1007.1 hPa | 0 mm | - | - | - |
| 1778222743 | 8.89° C | 75% | 1007 hPa | 0 mm | - | - | - |
| 1778222135 | 8.89° C | 74% | 1007.1 hPa | 0 mm | - | - | - |
| 1778221530 | 8.89° C | 74% | 1007.1 hPa | 0 mm | - | - | - |
| 1778220923 | 9.44° C | 73% | 1007.3 hPa | 0 mm | - | - | - |
| 1778220320 | 9.44° C | 74% | 1007.3 hPa | 0 mm | - | - | - |
| 1778219718 | 9.44° C | 75% | 1007.4 hPa | 0 mm | - | - | - |
| 1778219105 | 9.44° C | 74% | 1007.6 hPa | 0 mm | - | - | - |
| 1778218499 | 9.44° C | 73% | 1007.4 hPa | 0 mm | - | - | - |
| 1778217893 | 9.44° C | 72% | 1007.5 hPa | 0 mm | - | - | - |
| 1778217286 | 9.44° C | 71% | 1007.2 hPa | 0 mm | - | - | - |
| 1778216680 | 9.44° C | 73% | 1007.3 hPa | 0 mm | - | - | - |
| 1778216074 | 9.44° C | 74% | 1007.1 hPa | 0 mm | - | - | - |
| 1778215468 | 9.44° C | 73% | 1007.4 hPa | 0 mm | - | - | - |
| 1778214862 | 9.44° C | 73% | 1007.3 hPa | 0 mm | - | - | - |
| 1778214257 | 9.44° C | 76% | 1007.6 hPa | 0 mm | - | - | - |
| 1778213650 | 9.44° C | 77% | 1007.5 hPa | 0 mm | - | - | - |
| 1778213043 | 9.44° C | 78% | 1007.3 hPa | 0 mm | - | - | - |
| 1778212438 | 8.89° C | 80% | 1007.3 hPa | 0 mm | - | - | - |
| 1778211830 | 8.89° C | 79% | 1007 hPa | 0 mm | - | - | - |
| 1778211225 | 8.89° C | 80% | 1007.1 hPa | 0 mm | - | - | - |
| 1778210618 | 8.89° C | 81% | 1007.4 hPa | 0 mm | - | - | - |
| 1778210012 | 8.89° C | 82% | 1007.2 hPa | 0 mm | - | - | - |
* Rain latest hour (hover to see other rain measurements)
** Current wind speed in m/s (hover to see current wind gust speed)